Lewistown, MT

11:11 AM MDT on July 22, 2017 (GMT -0600)
Lewistown Municipal

Weather History for KLWT - January, 2015

Change the Weather History Date:

Monday, January 5, 2015

  Actual Average Record
Temperature  
Mean Temperature 22 °F 23 °F  
Max Temperature 38 °F 34 °F 57 °F (2012)
Min Temperature 5 °F 12 °F -28 °F (1909)
Degree Days  
Heating Degree Days 43 42  
Month to date heating degree days 255 210  
Since 1 July heating degree days 3272 3632  
Cooling Degree Days 0 0  
Month to date cooling degree days 0 0  
Year to date cooling degree days 0 0  
Moisture  
Dew Point 12 °F    
Average Humidity 82    
Maximum Humidity 89    
Minimum Humidity 75    
Precipitation  
Precipitation 0.19 in 0.02 in 0.23 in (2015)
Month to date precipitation 0.24 0.10  
Year to date precipitation 0.24 0.10  
Snow  
Snow 0.00 in - - ()
Snow Depth 8.00 in    
Sea Level Pressure  
Sea Level Pressure 30.08 in    
Wind  
Wind Speed 13 mph (WSW)    
Max Wind Speed 30 mph    
Max Gust Speed 36 mph    
Visibility 2 miles    
Events Fog , Rain , Snow    
T = Trace of Precipitation, MM = Missing Value Source: NWS Daily Summary

Daily Weather History Graph

Daily Weather History Graph

Search for Another Location

Airport or City:

Trip Planner

Search our weather history database for the weather conditions in past years. The results will help you decide how hot, cold, wet, or windy it might be!

Date:

Astronomy

Jan. 05, 2015 Rise Set
Actual Time 8:03 AM MST 4:43 PM MST
Civil Twilight 7:28 AM MST 5:18 PM MST
Nautical Twilight 6:49 AM MST 5:56 PM MST
Astronomical Twilight 6:13 AM MST 6:33 PM MST
Moon 5:47 PM MST (1/5) 7:57 AM MST (1/5)
Length of Visible Light 9h 49m
Length of Day
8h 39m
Full, 100% of the Moon is Illuminated
Jan 5
Full
Jan 13
Last Quarter
Jan 20
New
Jan 26
First Quarter
Feb 3
Full

Hourly Weather History & Observations

Time (MST) Temp. Windchill Dew Point Humidity Pressure Visibility Wind Dir Wind Speed Gust Speed Precip Events Conditions
12:36 AM 10.0 °F -0.9 °F 5.0 °F 80% 29.93 in 2.5 mi ESE 6.9 mph - 0.00 in Snow Light Snow
12:54 AM 12.0 °F 4.1 °F 7.0 °F 80% 30.14 in 2.0 mi ESE 4.6 mph - 0.00 in Snow Light Snow
1:09 AM 12.0 °F 0.5 °F 7.0 °F 80% 29.89 in 1.5 mi East 8.1 mph - 0.00 in Snow Light Snow
1:35 AM 14.0 °F 2.9 °F 10.0 °F 84% 29.84 in 2.5 mi ESE 8.1 mph - 0.01 in Snow Light Snow
1:46 AM 16.0 °F 5.3 °F 10.9 °F 81% 29.84 in 3.0 mi ESE 8.1 mph - 0.01 in Snow Light Snow
1:54 AM 16.0 °F 5.3 °F 12.0 °F 84% 30.04 in 5.0 mi ESE 8.1 mph - 0.01 in Snow Light Snow
2:54 AM 32.0 °F 19.5 °F 27.0 °F 82% 29.94 in 2.5 mi SW 21.9 mph - 0.00 in Snow Light Snow
3:07 AM 32.0 °F 18.6 °F 28.0 °F 85% 29.77 in 2.0 mi SW 25.3 mph - 0.00 in Snow Light Snow
3:14 AM 32.0 °F 18.9 °F 28.0 °F 85% 29.76 in 1.8 mi SW 24.2 mph - 0.00 in Snow Light Snow
3:35 AM 32.0 °F 18.9 °F 28.0 °F 85% 29.75 in 2.5 mi WSW 24.2 mph - 0.00 in Snow Light Snow
3:44 AM 33.1 °F 20.3 °F 28.0 °F 82% 29.74 in 4.0 mi WSW 24.2 mph - 0.00 in Snow Light Snow
3:54 AM 33.1 °F 20.9 °F 28.0 °F 82% 29.90 in 4.0 mi WSW 21.9 mph - 0.00 in Snow Light Snow
4:35 AM 34.0 °F 21.3 °F 28.0 °F 79% 29.72 in 3.0 mi SW 25.3 mph - 0.00 in Snow Light Snow
4:43 AM 34.0 °F 21.5 °F 28.0 °F 79% 29.72 in 2.5 mi SW 24.2 mph - 0.00 in Snow Light Snow
4:52 AM 33.8 °F 21.0 °F 28.4 °F 81% 29.71 in 4.0 mi SW 25.3 mph - 0.00 in Snow Light Snow
4:54 AM 34.0 °F 21.5 °F 28.0 °F 79% 29.88 in 4.0 mi SW 24.2 mph - 0.00 in Snow Light Snow
5:54 AM 37.0 °F 25.1 °F 30.0 °F 76% 29.86 in 10.0 mi WSW 26.5 mph - 0.00 in   Overcast
6:54 AM 37.0 °F 28.9 °F 30.0 °F 76% 29.88 in 10.0 mi West 12.7 mph - 0.00 in   Overcast
7:54 AM 36.0 °F 26.7 °F 28.9 °F 76% 29.92 in 10.0 mi WNW 15.0 mph - 0.00 in   Overcast
8:14 AM 36.0 °F 25.6 °F 30.0 °F 79% 29.78 in 10.0 mi WNW 18.4 mph - 0.00 in Rain Light Rain
8:54 AM 36.0 °F 25.0 °F 32.0 °F 86% 29.97 in 10.0 mi WNW 20.7 mph - 0.00 in Rain Light Rain
9:08 AM 34.0 °F 23.0 °F 30.9 °F 89% 29.84 in 1.8 mi WNW 18.4 mph 26.5 mph 0.01 in Snow Light Snow
9:21 AM 33.1 °F 21.5 °F 30.0 °F 89% 29.85 in 1.5 mi WNW 19.6 mph - 0.01 in Snow Light Snow
9:34 AM 30.9 °F 17.2 °F 28.0 °F 89% 29.88 in 0.5 mi NW 25.3 mph 36.8 mph 0.01 in Fog , Snow Snow
9:46 AM 26.1 °F 11.6 °F 23.0 °F 88% 29.90 in 0.2 mi NW 21.9 mph 35.7 mph 0.02 in Fog , Snow Light Snow
9:54 AM 24.1 °F 9.4 °F 21.0 °F 88% 30.09 in 0.2 mi NW 20.7 mph 33.4 mph 0.02 in Fog , Snow Snow
10:04 AM 21.9 °F 6.5 °F 18.0 °F 85% 29.92 in 0.5 mi WNW 20.7 mph 26.5 mph 0.00 in Fog , Snow Snow
10:36 AM 16.0 °F -0.9 °F 12.0 °F 84% 29.97 in 0.2 mi WNW 19.6 mph 29.9 mph 0.00 in Fog , Snow Snow
10:54 AM 14.0 °F -2.0 °F 10.0 °F 84% 30.21 in 0.2 mi WNW 16.1 mph - 0.00 in Fog , Snow Snow
11:54 AM 10.0 °F -10.4 °F 5.0 °F 80% 30.29 in 0.2 mi West 24.2 mph - 0.01 in Snow Heavy Snow
12:36 PM 8.1 °F -7.7 °F 3.0 °F 80% 30.13 in 0.5 mi WNW 12.7 mph - 0.00 in Snow Snow
12:54 PM 8.1 °F -2.0 °F 3.0 °F 80% 30.35 in 0.5 mi West 5.8 mph - 0.01 in Snow Snow
1:06 PM 7.0 °F -9.8 °F 1.9 °F 80% 30.14 in 0.2 mi West 13.8 mph - 0.01 in Snow Heavy Snow
1:24 PM 7.0 °F -11.6 °F 1.9 °F 80% 30.15 in 0.5 mi West 17.3 mph - 0.01 in Snow Snow
1:34 PM 7.0 °F -12.1 °F 1.0 °F 77% 30.15 in 0.5 mi West 18.4 mph - 0.01 in Snow Snow
1:42 PM 7.0 °F -10.4 °F 1.0 °F 77% 30.15 in 0.2 mi WNW 15.0 mph - 0.01 in Snow Heavy Snow
1:54 PM 6.1 °F -9.5 °F 1.0 °F 80% 30.38 in 0.2 mi West 11.5 mph - 0.01 in Snow Heavy Snow
2:02 PM 6.1 °F -9.5 °F 1.0 °F 80% 30.16 in 0.5 mi West 11.5 mph - 0.00 in Snow Snow
2:24 PM 6.1 °F -12.2 °F -0.0 °F 76% 30.17 in 0.5 mi West 16.1 mph - 0.00 in Snow Snow
2:54 PM 6.1 °F -12.2 °F -0.0 °F 76% 30.35 in 0.8 mi WSW 16.1 mph - 0.01 in Snow Light Snow
3:07 PM 5.0 °F -13.0 °F -0.0 °F 80% 30.19 in 1.0 mi West 15.0 mph - 0.00 in Snow Light Snow
3:19 PM 5.0 °F -10.8 °F -0.0 °F 80% 30.20 in 0.8 mi WSW 11.5 mph - 0.00 in Snow Light Snow
3:31 PM 6.1 °F -10.2 °F -0.0 °F 76% 30.20 in 1.0 mi WSW 12.7 mph - 0.00 in Snow Light Snow
3:54 PM 6.1 °F -6.8 °F -0.0 °F 76% 30.38 in 1.0 mi WSW 8.1 mph - 0.00 in Snow Light Snow
4:54 PM 6.1 °F -2.8 °F 1.0 °F 80% 30.39 in 1.5 mi West 4.6 mph - 0.01 in Snow Light Snow
5:04 PM 6.1 °F -2.8 °F 1.0 °F 80% 30.23 in 2.5 mi West 4.6 mph - 0.00 in Snow Light Snow
5:16 PM 6.1 °F -2.8 °F 1.9 °F 83% 30.24 in 1.5 mi West 4.6 mph - 0.00 in Snow Light Snow
5:54 PM 7.0 °F - 1.9 °F 80% 30.38 in 1.8 mi Calm Calm - 0.01 in Snow Light Snow
6:07 PM 7.0 °F - 1.9 °F 80% 30.23 in 2.5 mi Calm Calm - 0.01 in Snow Light Snow
6:20 PM 7.0 °F - 1.9 °F 80% 30.24 in 1.5 mi Calm Calm - 0.01 in Snow Light Snow
6:54 PM 8.1 °F 1.4 °F 3.0 °F 80% 30.36 in 2.0 mi East 3.5 mph - 0.02 in Snow Light Snow
7:29 PM 8.1 °F -3.2 °F 3.9 °F 83% 30.21 in 1.8 mi ESE 6.9 mph - 0.01 in Snow Light Snow
7:54 PM 9.0 °F -0.9 °F 3.9 °F 80% 30.35 in 1.5 mi ESE 5.8 mph - 0.02 in Snow Light Snow
8:06 PM 9.0 °F -0.9 °F 3.9 °F 80% 30.21 in 2.0 mi ESE 5.8 mph - 0.00 in Snow Light Snow
8:16 PM 10.0 °F 0.4 °F 5.0 °F 80% 30.20 in 3.0 mi ESE 5.8 mph - 0.00 in Snow Light Snow
8:54 PM 10.9 °F -0.8 °F 7.0 °F 84% 30.33 in 3.0 mi ESE 8.1 mph - 0.01 in Snow Light Snow
9:13 PM 12.0 °F -0.4 °F 7.0 °F 80% 30.20 in 3.0 mi ESE 9.2 mph - 0.00 in Snow Light Snow
9:54 PM 14.0 °F 0.5 °F 10.0 °F 84% 30.36 in 2.5 mi ESE 11.5 mph - 0.01 in Snow Light Snow
10:12 PM 15.1 °F 4.2 °F 10.0 °F 80% 30.20 in 1.2 mi East 8.1 mph - 0.01 in Snow Light Snow
10:54 PM 14.0 °F -0.2 °F 10.0 °F 84% 30.40 in 1.0 mi ESE 12.7 mph - 0.02 in Snow Light Snow
11:12 PM 14.0 °F 0.5 °F 9.0 °F 80% 30.21 in 1.2 mi ESE 11.5 mph - 0.01 in Snow Light Snow
11:54 PM 12.9 °F -0.2 °F 9.0 °F 84% 30.41 in 1.5 mi East 10.4 mph - 0.02 in Snow Light Snow